If you wish to contribute or participate in the discussions about articles you are invited to join SKYbrary as a registered user

 Actions

Bordeaux/Merignac

From SKYbrary Wiki

LFBD
Airport
ICAO: LFBD
Summary
Name Bordeaux/Merignac
Region Europe
Territory France FR.gif
Location Bordeaux/Merignac, Aquitaine
Serving
Coordinates 44° 49' 38.08" N, 0° 43' 3.26" W
Runways
Designator Length Width Surface ROPS
5/23 3100 m10,170.604 ft
45 m147.638 ft
ASP yes/yes
11/29 2415 m7,923.228 ft
45 m147.638 ft
ASP yes/yes


METAR
Observation LFBD 191100Z AUTO 30008KT 260V010 9999 SCT030 BKN035 BKN044 23/15 Q1014 NOSIG
Station Bordeaux / Merignac
Date/Time 19 June 2019 11:00:00
Wind direction 300°
Wind speed 08 kts
Lowest cloud amount scattered clouds
Temperature 23°C
Dew point 15°C
Humidity 60%
QNH 1014 hPa
Weather condition n/a

Bordeaux/Merignac Airport

ICAO: LFBD IATA: BOD

Description

International airport serving city of Bordeaux.

Climatology

Temperate Marine climate/Oceanic climate (Köppen climate classification Cfb). Moderately cool summer and comparatively warm winter with a temperature range of only 14°C57.2 °F
287.15 K
516.87 °R
. Prevailing south-westerly winds from the Atlantic Ocean.

Maps

Terrain

Loading map...

Airport Layout

Loading map...


Accidents & Serious Incidents at or in vicinity of LFBD

None on SKYbrary